fecha,temperaturaMaxima,temperaturaMinima,pluviometro
1994-01-01,23.0,13.0,0.0
1994-01-02,21.7,11.4,0.0
1994-01-03,27.2,9.1,0.0
1994-01-04,28.1,14.0,0.0
1994-01-05,30.4,16.1,0.0
1994-01-06,30.2,18.2,1.0
1994-01-07,31.6,19.1,0.5
1994-01-08,25.1,18.6,0.0
1994-01-09,22.0,11.5,0.0
1994-01-10,25.3,9.9,0.0
1994-01-11,31.6,14.0,0.0
1994-01-12,27.4,14.9,0.0
1994-01-13,26.4,10.3,0.0
1994-01-14,31.6,12.0,0.0
1994-01-15,23.1,15.7,1.5
1994-01-16,23.1,13.0,0.0
1994-01-17,26.5,9.4,0.0
1994-01-18,30.4,17.5,0.0
1994-01-19,33.4,16.5,0.0
1994-01-20,35.3,20.1,0.0
1994-01-21,22.5,12.2,0.0
1994-01-22,20.0,10.8,6.7
1994-01-23,28.4,17.1,3.0
1994-01-24,28.6,19.3,4.0
1994-01-25,25.6,18.1,4.0
1994-01-26,24.1,16.3,0.0
1994-01-27,27.0,13.6,0.0
1994-01-28,31.0,13.9,0.0
1994-01-29,32.2,18.0,0.0
1994-01-30,33.8,17.5,3.0
1994-01-31,31.4,16.2,0.0
1994-02-01,33.6,19.0,10.5
1994-02-02,31.4,17.3,0.0
1994-02-03,31.6,20.8,15.0
1994-02-04,25.8,17.2,0.0
1994-02-05,20.0,13.8,0.0
1994-02-06,22.4,12.3,0.0
1994-02-07,27.0,10.5,0.0
1994-02-08,31.4,16.8,0.0
1994-02-09,26.8,20.2,1.0
1994-02-10,23.6,15.7,0.0
1994-02-11,27.0,13.5,0.0
1994-02-12,27.2,14.5,0.0
1994-02-13,27.8,15.6,0.0
1994-02-14,25.2,16.9,0.0
1994-02-15,28.4,17.2,0.0
1994-02-16,24.0,16.7,5.6
1994-02-17,23.4,12.5,0.0
1994-02-18,29.2,10.3,0.0
1994-02-19,29.0,15.1,0.0
1994-02-20,32.6,12.8,0.0
1994-02-21,32.2,17.5,0.0
1994-02-22,31.2,15.1,0.0
1994-02-23,29.6,18.3,0.0
1994-02-24,27.2,15.7,0.0
1994-02-25,27.6,16.6,0.0
1994-02-26,28.0,15.7,0.0
1994-02-27,28.2,14.8,0.0
1994-02-28,30.0,17.9,0.0
1994-03-01,22.7,9.5,0.0
1994-03-02,25.4,7.6,0.0
1994-03-03,31.4,13.0,0.0
1994-03-04,31.0,17.0,0.0
1994-03-05,30.0,17.5,0.0
1994-03-06,28.0,15.7,0.0
1994-03-07,29.2,17.2,0.0
1994-03-08,30.2,15.7,0.0
1994-03-09,28.9,16.6,0.0
1994-03-10,30.6,17.1,0.0
1994-03-11,32.2,17.5,0.0
1994-03-12,32.2,17.5,0.0
1994-03-13,33.0,19.6,0.0
1994-03-14,33.0,19.6,29.3
1994-03-15,23.8,20.3,3.5
1994-03-16,26.8,18.4,2.2
1994-03-17,24.2,19.6,7.0
1994-03-18,23.0,18.4,30.0
1994-03-19,25.2,18.1,0.0
1994-03-20,26.5,16.6,14.0
1994-03-21,21.2,15.8,8.5
1994-03-22,21.5,14.0,8.5
1994-03-23,25.0,13.6,0.0
1994-03-24,28.2,14.2,6.5
1994-03-25,18.7,11.9,0.0
1994-03-26,20.6,9.0,0.0
1994-03-27,24.5,9.4,0.0
1994-03-28,27.5,16.5,0.0
1994-03-29,19.8,10.2,0.0
1994-03-30,20.1,8.6,0.0
1994-03-31,22.2,7.5,0.0
1994-04-01,24.6,10.0,0.0
1994-04-02,28.2,12.3,0.0
1994-04-03,21.0,15.6,19.5
1994-04-04,21.6,16.9,15.3
1994-04-05,21.4,18.1,8.5
1994-04-06,18.2,13.2,28.0
1994-04-07,19.0,10.9,0.0
1994-04-08,20.6,7.7,0.0
1994-04-09,20.2,12.9,16.0
1994-04-10,15.3,10.5,0.0
1994-04-11,19.0,11.0,0.0
1994-04-12,22.2,9.0,0.0
1994-04-13,24.2,8.9,0.0
1994-04-14,24.0,9.8,0.0
1994-04-15,26.8,11.1,0.0
1994-04-16,26.8,11.9,0.0
1994-04-17,19.4,12.7,0.0
1994-04-18,16.0,6.9,0.0
1994-04-19,16.5,5.0,0.0
1994-04-20,18.5,4.8,0.0
1994-04-21,20.4,8.5,0.0
1994-04-22,18.4,6.3,0.0
1994-04-23,21.0,4.1,0.0
1994-04-24,22.8,7.9,13.3
1994-04-25,26.4,15.8,0.0
1994-04-26,25.7,14.0,0.0
1994-04-27,24.8,12.5,13.0
1994-04-28,17.2,8.6,0.0
1994-04-29,20.0,11.5,0.0
1994-04-30,26.0,17.0,0.0
1994-05-01,21.8,15.7,44.2
1994-05-02,23.6,13.9,26.3
1994-05-03,20.7,16.0,0.0
1994-05-04,18.8,11.0,0.0
1994-05-05,24.6,9.0,0.0
1994-05-06,27.4,13.6,15.0
1994-05-07,21.4,11.7,42.0
1994-05-08,16.5,11.5,1.0
1994-05-09,16.3,6.2,0.0
1994-05-10,16.5,4.1,0.0
1994-05-11,16.9,4.0,0.0
1994-05-12,19.6,8.4,0.0
1994-05-13,20.4,7.3,0.0
1994-05-14,22.1,9.6,0.0
1994-05-15,22.4,10.9,0.0
1994-05-16,23.0,11.0,0.0
1994-05-17,22.3,12.3,0.0
1994-05-18,22.2,12.7,0.0
1994-05-19,17.6,10.2,13.7
1994-05-20,22.1,10.6,0.0
1994-05-21,18.1,13.0,0.0
1994-05-22,22.6,10.9,0.0
1994-05-23,23.7,14.6,6.2
1994-05-24,20.8,12.0,0.0
1994-05-25,19.7,9.3,0.0
1994-05-26,17.2,7.4,0.0
1994-05-27,14.0,4.7,0.0
1994-05-28,12.3,6.6,0.0
1994-05-29,15.0,6.1,0.0
1994-05-30,14.2,3.2,2.0
1994-05-31,17.3,7.2,0.0
1994-06-01,18.5,3.2,1.0
1994-06-02,17.6,10.7,0.0
1994-06-03,16.7,12.5,0.0
1994-06-04,18.4,9.8,0.0
1994-06-05,17.4,9.0,0.0
1994-06-06,15.0,5.4,0.0
1994-06-07,12.5,2.3,0.0
1994-06-08,12.4,1.0,0.0
1994-06-09,17.7,5.0,0.0
1994-06-10,21.6,6.8,0.0
1994-06-11,18.7,10.0,1.5
1994-06-12,20.2,14.1,15.2
1994-06-13,16.2,14.3,0.0
1994-06-14,22.1,14.7,3.0
1994-06-15,19.4,15.3,17.2
1994-06-16,17.4,15.0,9.3
1994-06-17,19.0,15.4,1.0
1994-06-18,18.0,9.4,0.0
1994-06-19,14.9,5.4,0.0
1994-06-20,14.6,4.4,0.0
1994-06-21,14.3,9.0,14.1
1994-06-22,13.1,9.9,0.0
1994-06-23,14.4,4.7,1.0
1994-06-24,10.2,7.1,0.0
1994-06-25,9.2,2.8,0.0
1994-06-26,12.5,3.0,0.0
1994-06-27,9.5,1.3,0.0
1994-06-28,13.9,-1.4,0.0
1994-06-29,20.0,4.0,4.5
1994-06-30,17.6,8.0,0.0
1994-07-01,15.5,4.8,0.0
1994-07-02,16.0,3.2,0.0
1994-07-03,17.0,1.2,0.0
1994-07-04,11.4,1.2,0.0
1994-07-05,13.0,0.6,0.0
1994-07-06,10.0,2.4,0.0
1994-07-07,8.6,4.0,4.3
1994-07-08,8.4,2.4,0.0
1994-07-09,8.8,4.0,0.0
1994-07-10,12.3,0.4,4.2
1994-07-11,13.3,-0.4,0.0
1994-07-12,18.0,2.0,0.0
1994-07-13,17.0,7.8,0.0
1994-07-14,18.2,8.2,0.0
1994-07-15,24.6,7.7,0.0
1994-07-16,23.6,15.0,0.0
1994-07-17,18.5,9.3,0.0
1994-07-18,16.3,5.8,0.0
1994-07-19,16.9,11.9,4.4
1994-07-20,15.4,11.2,23.0
1994-07-21,12.0,9.6,21.0
1994-07-22,10.2,4.4,0.0
1994-07-23,9.8,0.0,0.0
1994-07-24,15.1,3.1,0.0
1994-07-25,12.7,2.4,0.0
1994-07-26,15.6,2.4,0.0
1994-07-27,14.8,2.9,1.4
1994-07-28,13.4,9.0,0.0
1994-07-29,16.4,8.0,0.0
1994-07-30,17.5,12.2,39.5
1994-07-31,17.2,13.7,55.5
1994-08-01,16.7,9.8,1.0
1994-08-02,13.7,6.2,0.0
1994-08-03,10.8,2.8,0.0
1994-08-04,15.5,1.2,0.0
1994-08-05,19.0,2.8,0.0
1994-08-06,22.1,6.2,0.0
1994-08-07,22.0,7.0,0.0
1994-08-08,19.3,7.0,2.0
1994-08-09,14.5,8.3,0.0
1994-08-10,15.2,4.8,0.0
1994-08-11,19.5,4.9,0.0
1994-08-12,21.1,9.0,0.0
1994-08-13,19.0,4.6,0.0
1994-08-14,13.9,4.1,0.0
1994-08-15,12.0,1.8,0.0
1994-08-16,11.7,3.6,0.0
1994-08-17,15.3,-0.2,0.0
1994-08-18,14.8,4.8,0.0
1994-08-19,15.1,7.6,0.0
1994-08-20,16.7,7.6,0.0
1994-08-21,16.7,8.0,6.0
1994-08-22,12.6,6.6,0.0
1994-08-23,15.0,3.0,0.0
1994-08-24,17.8,3.0,0.0
1994-08-25,18.5,8.1,0.0
1994-08-26,16.2,4.0,0.0
1994-08-27,19.7,2.0,0.0
1994-08-28,22.6,10.2,0.0
1994-08-29,18.3,10.5,0.8
1994-08-30,14.1,10.4,0.0
1994-08-31,13.0,11.0,6.0
1994-09-01,16.1,10.1,7.4
1994-09-02,13.0,6.4,0.0
1994-09-03,19.7,4.4,0.0
1994-09-04,20.8,5.1,0.0
1994-09-05,19.9,7.7,1.0
1994-09-06,19.3,9.5,0.0
1994-09-07,12.3,2.8,0.2
1994-09-08,12.2,4.7,0.0
1994-09-09,15.0,4.0,0.0
1994-09-10,20.2,5.8,0.0
1994-09-11,21.2,9.8,0.0
1994-09-12,18.1,9.4,6.6
1994-09-13,19.5,8.5,0.0
1994-09-14,16.1,7.6,14.2
1994-09-15,17.1,8.2,0.0
1994-09-16,20.0,7.0,0.0
1994-09-17,20.9,7.2,0.0
1994-09-18,28.0,12.7,0.0
1994-09-19,27.7,17.2,1.0
1994-09-20,27.9,15.3,16.6
1994-09-21,18.8,11.8,10.3
1994-09-22,21.2,11.6,19.3
1994-09-23,29.2,18.2,0.0
1994-09-24,24.7,11.9,0.7
1994-09-25,21.3,11.8,0.0
1994-09-26,16.6,5.4,0.0
1994-09-27,17.0,5.4,0.0
1994-09-28,23.0,8.0,0.0
1994-09-29,18.6,13.5,0.0
1994-09-30,16.9,9.8,0.0
1994-10-01,20.8,6.8,0.0
1994-10-02,24.6,9.7,13.2
1994-10-03,20.8,11.3,0.4
1994-10-04,15.7,10.4,0.0
1994-10-05,20.8,10.2,8.6
1994-10-06,21.8,8.6,0.0
1994-10-07,24.6,12.0,4.5
1994-10-08,26.5,14.6,9.2
1994-10-09,22.1,15.9,0.0
1994-10-10,18.3,10.1,0.0
1994-10-11,20.4,8.8,5.5
1994-10-12,20.0,13.8,1.3
1994-10-13,23.2,14.2,0.0
1994-10-14,25.2,9.1,0.0
1994-10-15,28.5,13.0,39.5
1994-10-16,23.0,14.2,0.0
1994-10-17,21.3,9.9,0.0
1994-10-18,22.6,8.0,0.0
1994-10-19,22.7,9.6,0.0
1994-10-20,22.0,10.3,0.0
1994-10-21,24.6,9.2,0.0
1994-10-22,22.0,9.3,0.0
1994-10-23,20.2,10.0,16.6
1994-10-24,16.5,12.7,0.2
1994-10-25,21.8,11.0,0.2
1994-10-26,21.3,8.5,0.0
1994-10-27,21.6,5.0,0.0
1994-10-28,14.5,10.2,0.0
1994-10-29,13.3,6.1,0.0
1994-10-30,16.4,5.3,28.2
1994-10-31,15.8,12.9,33.2
1994-11-01,21.0,11.8,0.0
1994-11-02,26.6,10.2,1.0
1994-11-03,26.1,13.8,0.0
1994-11-04,29.3,15.4,0.0
1994-11-05,25.4,14.5,0.0
1994-11-06,22.9,9.0,0.0
1994-11-07,26.7,9.0,0.0
1994-11-08,28.0,15.5,11.4
1994-11-09,20.7,14.2,0.0
1994-11-10,23.5,13.7,0.0
1994-11-11,25.3,12.9,0.0
1994-11-12,28.0,15.8,0.0
1994-11-13,28.4,15.4,0.0
1994-11-14,28.7,16.8,0.0
1994-11-15,28.0,17.5,0.0
1994-11-16,28.7,14.4,0.0
1994-11-17,20.9,9.7,0.0
1994-11-18,23.3,6.2,0.0
1994-11-19,24.0,10.6,0.0
1994-11-20,24.6,7.6,0.0
1994-11-21,27.3,10.8,0.0
1994-11-22,27.2,13.9,0.0
1994-11-23,30.2,12.6,0.0
1994-11-24,31.0,12.4,0.0
1994-11-25,32.8,14.7,0.0
1994-11-26,20.0,11.7,0.0
1994-11-27,23.2,8.2,0.0
1994-11-28,22.4,10.9,90.0
1994-11-29,20.8,14.4,7.0
1994-11-30,27.0,16.3,0.0
1994-12-01,31.6,16.9,1.5
1994-12-02,23.5,16.6,16.1
1994-12-03,22.3,13.1,0.0
1994-12-04,21.2,12.5,0.0
1994-12-05,24.3,10.5,0.0
1994-12-06,27.9,14.0,0.0
1994-12-07,28.6,11.9,0.0
1994-12-08,31.9,15.5,0.0
1994-12-09,34.3,18.3,0.0
1994-12-10,36.2,20.8,0.0
1994-12-11,35.6,22.6,0.0
1994-12-12,35.6,22.3,52.0
1994-12-13,26.1,21.5,0.0
1994-12-14,28.3,18.6,0.0
1994-12-15,29.3,15.4,0.0
1994-12-16,30.2,17.6,17.9
1994-12-17,23.2,16.3,0.0
1994-12-18,26.6,14.1,0.0
1994-12-19,27.2,16.5,0.0
1994-12-20,27.8,17.6,0.0
1994-12-21,28.2,18.4,0.0
1994-12-22,30.0,19.0,0.0
1994-12-23,32.2,19.5,0.0
1994-12-24,33.1,17.8,0.0
1994-12-25,33.0,16.4,0.0
1994-12-26,31.9,14.6,0.0
1994-12-27,30.5,17.2,0.0
1994-12-28,29.7,21.0,0.0
1994-12-29,29.2,21.2,0.0
1994-12-30,33.8,18.7,0.0
1994-12-31,34.4,19.5,0.0
